CW1923 Weather Reports


Display with metric or nautical units.
time (UTC)temp
F
wind
direction
speed
MPH
gust
MPH
rain 1hr
in
rain 24hr
in
rain mn
in
humidity
%
barometer
mb
20260902131132 71 293 5.0 18.0 0.00 0.00 0.00 66 1020.9
20260902130631 72 233 5.0 18.0 0.00 0.00 0.00 65 1020.8
20260902130132 72 336 4.0 12.0 0.00 0.00 0.00 64 1020.8
20260902125630 73 310 5.0 14.0 0.00 0.00 0.00 63 1020.8
20260902125132 73 288 4.0 12.0 0.00 0.00 0.00 63 1020.9
20260902124631 73 288 4.0 11.0 0.00 0.00 0.00 63 1020.9
20260902123632 72 168 5.0 14.0 0.00 0.00 0.00 65 1021.0
20260902123132 72 277 5.0 16.0 0.00 0.00 0.00 64 1020.9
20260902122636 73 309 5.0 16.0 0.00 0.00 0.00 65 1020.9
20260902122133 71 174 5.0 16.0 0.00 0.00 0.00 66 1020.9
20260902121632 71 278 5.0 16.0 0.00 0.00 0.00 65 1021.0
20260902121131 72 301 4.0 12.0 0.00 0.00 0.00 65 1021.0
20260902120633 72 250 4.0 11.0 0.00 0.00 0.00 65 1020.9
20260902120133 72 279 5.0 14.0 0.00 0.00 0.00 64 1020.9
20260902115632 72 308 5.0 14.0 0.00 0.00 0.00 65 1021.0
20260902115132 72 304 5.0 14.0 0.00 0.00 0.00 66 1021.0
20260902114635 72 283 4.0 12.0 0.00 0.00 0.00 67 1020.9
20260902114132 71 336 4.0 12.0 0.00 0.00 0.00 68 1020.9
20260902113634 71 315 4.0 9.0 0.00 0.00 0.00 68 1021.0
20260902113133 71 55 5.0 14.0 0.00 0.00 0.00 68 1020.9
20260902112633 71 305 5.0 14.0 0.00 0.00 0.00 68 1021.0
20260902111635 71 305 5.0 16.0 0.00 0.00 0.00 68 1021.1
20260902111133 71 307 4.0 16.0 0.00 0.00 0.00 66 1021.1
20260902105626 72 268 5.0 12.0 0.00 0.00 0.00 69 1021.2
20260902104623 71 282 5.0 14.0 0.00 0.00 0.00 68 1021.1
20260902104125 71 141 5.0 14.0 0.00 0.00 0.00 68 1021.2
20260902103624 71 266 4.0 14.0 0.00 0.00 0.00 69 1021.2
20260902103124 71 289 5.0 22.0 0.00 0.00 0.00 71 1021.3
20260902102124 70 299 7.0 23.0 0.00 0.00 0.00 71 1021.3
20260902101623 71 232 5.0 16.0 0.00 0.00 0.00 71 1021.2
20260902101124 71 278 5.0 16.0 0.00 0.00 0.00 72 1021.2
20260902100620 71 295 5.0 14.0 0.00 0.00 0.00 72 1021.3
20260902100121 70 287 5.0 16.0 0.00 0.00 0.00 72 1021.1
20260902095622 70 295 5.0 16.0 0.00 0.00 0.00 72 1021.3
20260902095120 70 301 5.0 14.0 0.00 0.00 0.00 73 1021.3
20260902094122 70 270 4.0 12.0 0.00 0.00 0.00 74 1021.3
20260902093616 69 285 5.0 12.0 0.00 0.00 0.00 74 1021.3
20260902093115 69 282 5.0 14.0 0.00 0.00 0.00 74 1021.3
20260902092610 69 301 5.0 16.0 0.00 0.00 0.00 77 1021.3
20260902092109 69 353 7.0 22.0 0.00 0.00 0.00 77 1021.4
20260902091612 68 297 7.0 22.0 0.00 0.00 0.00 77 1021.3
20260902091110 69 297 4.0 14.0 0.00 0.00 0.00 77 1021.3
20260902090608 69 315 5.0 18.0 0.00 0.00 0.00 78 1021.3
20260902090106 68 295 7.0 18.0 0.00 0.00 0.00 79 1021.3
20260902085105 68 289 5.0 18.0 0.00 0.00 0.00 79 1021.2
20260902084603 68 312 4.0 11.0 0.00 0.00 0.00 80 1021.1
20260902084105 67 281 4.0 11.0 0.00 0.00 0.00 80 1021.1
20260902083604 67 286 5.0 16.0 0.00 0.00 0.00 81 1021.2
20260902083104 67 332 5.0 16.0 0.00 0.00 0.00 81 1021.2
20260902082605 66 299 5.0 14.0 0.00 0.00 0.00 81 1021.1
20260902082103 66 205 7.0 18.0 0.00 0.00 0.00 82 1021.1
20260902081602 66 272 5.0 18.0 0.00 0.00 0.00 82 1021.0
20260902081103 65 162 4.0 14.0 0.00 0.00 0.00 83 1021.0
20260902080602 65 86 4.0 11.0 0.00 0.00 0.00 84 1020.9
20260902075603 64 278 4.0 12.0 0.00 0.00 0.00 85 1020.9
20260902075102 64 309 4.0 7.0 0.00 0.00 0.00 86 1020.9
20260902074554 63 160 4.0 9.0 0.00 0.00 0.00 86 1020.8
20260902074049 63 176 4.0 9.0 0.00 0.00 0.00 86 1020.7
20260902073551 63 195 4.0 12.0 0.00 0.00 0.00 87 1020.7
20260902072038 62 169 2.0 5.0 0.00 0.00 0.00 88 1020.8
20260902071038 62 171 2.0 7.0 0.00 0.00 0.00 88 1020.6
20260902070534 61 165 2.0 7.0 0.00 0.00 0.00 88 1020.5
20260902070034 61 145 2.0 9.0 0.00 0.00 0.00 88 1020.4
20260902065531 61 146 2.0 9.0 0.00 0.00 0.00 88 1020.6
20260902065033 61 183 0.0 5.0 0.00 0.00 0.00 89 1020.7
20260902063530 59 12 0.0 5.0 0.00 0.00 0.00 93 1020.7
20260902063031 59 357 0.0 5.0 0.00 0.00 0.00 94 1020.7
20260902062532 58 93 0.0 4.0 0.00 0.00 0.00 94 1020.7
20260902062028 58 93 0.0 4.0 0.00 0.00 0.00 94 1020.7
20260902061525 57 83 0.0 5.0 0.00 0.00 0.00 94 1020.7
20260902060519 56 87 0.0 5.0 0.00 0.00 0.00 94 1020.7
20260902060020 56 77 0.0 0.0 0.00 0.00 0.00 94 1020.6
20260902055515 56 70 0.0 0.0 0.00 0.00 0.00 94 1020.7
20260902055006 56 69 0.0 0.0 0.00 0.00 0.00 94 1020.8
20260902054504 56 60 0.0 0.0 0.00 0.00 0.00 94 1020.7
20260902053504 55 60 0.0 0.0 0.00 0.00 0.00 93 1020.6
20260902053007 55 60 0.0 0.0 0.00 0.00 0.00 93 1020.4
20260902052456 55 60 0.0 0.0 0.00 0.00 0.00 93 1020.5
20260902051441 55 60 0.0 0.0 0.00 0.00 0.00 93 1020.3
20260902050437 55 60 0.0 0.0 0.00 0.00 0.00 93 1020.2
20260902045933 55 60 0.0 0.0 0.00 0.00 0.00 93 1020.2
20260902045432 55 60 0.0 0.0 0.00 0.00 0.00 93 1020.2
20260902044934 55 60 0.0 0.0 0.00 0.00 0.00 93 1020.2
20260902043934 56 60 0.0 0.0 0.00 0.00 0.00 93 1020.3
20260902043432 56 60 0.0 0.0 0.00 0.00 0.00 93 1020.3
20260902042930 56 60 0.0 0.0 0.00 0.00 0.00 93 1020.2
20260902042432 56 60 0.0 0.0 0.00 0.00 0.00 93 1020.3
20260902041932 56 60 0.0 0.0 0.00 0.00 0.00 93 1020.3
20260902041432 56 60 0.0 0.0 0.00 0.00 0.00 93 1020.3
20260902040430 56 60 0.0 0.0 0.00 0.00 0.00 93 1020.2
20260902035932 56 60 0.0 0.0 0.00 0.00 0.00 92 1020.2
20260902035405 56 60 0.0 0.0 0.00 0.00 0.00 92 1020.1
20260902034403 56 60 0.0 0.0 0.00 0.00 0.00 92 1020.1
20260902033405 56 60 0.0 0.0 0.00 0.00 0.00 92 1020.2
20260902032905 57 60 0.0 0.0 0.00 0.00 0.00 92 1020.3
20260902032407 57 60 0.0 0.0 0.00 0.00 0.00 92 1020.3
20260902031905 57 60 0.0 0.0 0.00 0.00 0.00 92 1020.3
20260902031406 57 60 0.0 0.0 0.00 0.00 0.00 92 1020.4
20260902030903 57 60 0.0 0.0 0.00 0.00 0.00 92 1020.5
20260902030407 57 60 0.0 0.0 0.00 0.00 0.00 92 1020.5
20260902025847 57 60 0.0 0.0 0.00 0.00 0.00 92 1020.5
20260902025342 57 60 0.0 0.0 0.00 0.00 0.00 92 1020.4
20260902024833 57 60 0.0 0.0 0.00 0.00 0.00 92 1020.4
20260902024335 57 60 0.0 0.0 0.00 0.00 0.00 92 1020.6
20260902023333 57 60 0.0 0.0 0.00 0.00 0.00 92 1020.5
20260902022332 57 60 0.0 0.0 0.00 0.00 0.00 93 1020.6
20260902021334 57 60 0.0 0.0 0.00 0.00 0.00 93 1020.7
20260902020832 57 60 0.0 0.0 0.00 0.00 0.00 93 1020.8
20260902020333 57 60 0.0 0.0 0.00 0.00 0.00 92 1020.7
20260902015834 57 60 0.0 0.0 0.00 0.00 0.00 93 1020.6
20260902015330 57 60 0.0 0.0 0.00 0.00 0.00 93 1020.4
20260902014832 57 60 0.0 0.0 0.00 0.00 0.00 93 1020.6
20260902013831 57 60 0.0 2.0 0.00 0.00 0.00 93 1020.7
20260902013331 57 60 0.0 2.0 0.00 0.00 0.00 93 1020.6
20260902012835 57 60 0.0 0.0 0.00 0.00 0.00 93 1020.6
20260902012333 57 60 0.0 0.0 0.00 0.00 0.00 93 1020.7
20260902011831 57 60 0.0 2.0 0.00 0.00 0.00 93 1020.7
20260902011332 57 60 0.0 4.0 0.00 0.00 0.00 93 1020.7
20260902010321 57 60 0.0 0.0 0.00 0.00 0.00 93 1020.7
20260902005806 57 60 0.0 0.0 0.00 0.00 0.00 92 1020.8
20260902004308 57 60 0.0 0.0 0.00 0.00 0.00 92 1021.1
20260902003804 57 60 0.0 0.0 0.00 0.00 0.00 92 1021.2
20260902002803 57 60 0.0 0.0 0.00 0.00 0.00 92 1020.9
20260902002306 57 60 0.0 0.0 0.00 0.00 0.00 92 1020.8
20260902001805 57 60 0.0 0.0 0.00 0.00 0.00 92 1020.7
20260902000805 58 60 0.0 0.0 0.00 0.00 0.00 91 1020.7
20260902000304 58 60 0.0 0.0 0.00 0.00 0.00 91 1020.6
20260901235759 58 60 0.0 0.0 0.00 0.00 0.00 91 1020.7
20260901235246 58 60 0.0 0.0 0.00 0.00 0.00 91 1020.8
20260901234746 58 60 0.0 0.0 0.00 0.00 0.00 91 1020.8
20260901234247 58 60 0.0 0.0 0.00 0.00 0.00 90 1020.9
20260901233734 58 60 0.0 0.0 0.00 0.00 0.00 90 1020.8
20260901233236 58 60 0.0 0.0 0.00 0.00 0.00 90 1020.9
20260901232231 58 60 0.0 0.0 0.00 0.00 0.00 89 1020.9
20260901231733 59 60 0.0 0.0 0.00 0.00 0.00 89 1021.0
20260901231232 59 60 0.0 0.0 0.00 0.00 0.00 89 1020.9
20260901230235 59 60 0.0 0.0 0.00 0.00 0.00 89 1020.8
20260901225233 59 60 0.0 0.0 0.00 0.00 0.00 88 1020.8
20260901224732 60 60 0.0 0.0 0.00 0.00 0.00 88 1020.8
20260901224232 60 60 0.0 0.0 0.00 0.00 0.00 88 1020.8
20260901223230 60 60 0.0 0.0 0.00 0.00 0.00 88 1020.8
20260901221732 61 60 0.0 0.0 0.00 0.00 0.00 87 1020.9
20260901221232 61 60 0.0 0.0 0.00 0.00 0.00 87 1021.0
20260901220732 61 60 0.0 0.0 0.00 0.00 0.00 86 1020.9
20260901220231 61 60 0.0 0.0 0.00 0.00 0.00 86 1020.9
20260901215732 61 60 0.0 0.0 0.00 0.00 0.00 86 1021.0
20260901214732 62 60 0.0 0.0 0.00 0.00 0.00 86 1021.1
20260901214231 62 60 0.0 0.0 0.00 0.00 0.00 86 1021.1
20260901213731 62 60 0.0 0.0 0.00 0.00 0.00 86 1021.0
20260901213225 62 60 0.0 0.0 0.00 0.00 0.00 86 1021.1
20260901212724 62 60 0.0 0.0 0.00 0.00 0.00 86 1021.1
20260901212227 62 60 0.0 0.0 0.00 0.00 0.00 86 1021.3
20260901211719 62 60 0.0 0.0 0.00 0.00 0.00 86 1021.3
20260901211206 62 60 0.0 0.0 0.00 0.00 0.00 86 1021.3
20260901210706 62 60 0.0 0.0 0.00 0.00 0.00 86 1021.5
20260901210203 62 60 0.0 0.0 0.00 0.00 0.00 86 1021.4
20260901205706 62 60 0.0 0.0 0.00 0.00 0.00 86 1021.5
20260901204702 62 60 0.0 0.0 0.00 0.00 0.00 86 1021.3
20260901204206 62 60 0.0 0.0 0.00 0.00 0.00 85 1021.4
20260901203204 62 60 0.0 0.0 0.00 0.00 0.00 85 1021.3
20260901202704 62 60 0.0 0.0 0.00 0.00 0.00 85 1021.4
20260901202204 62 60 0.0 0.0 0.00 0.00 0.00 84 1021.2
20260901201704 62 60 0.0 0.0 0.00 0.00 0.00 84 1021.2
20260901201205 62 60 0.0 0.0 0.00 0.00 0.00 84 1021.1
20260901200705 63 60 0.0 0.0 0.00 0.00 0.00 84 1021.1
20260901200207 63 60 0.0 0.0 0.00 0.00 0.00 84 1021.0
20260901195704 63 60 0.0 2.0 0.00 0.00 0.00 84 1021.1
20260901195156 63 60 0.0 2.0 0.00 0.00 0.00 83 1021.1
20260901194644 63 60 0.0 0.0 0.00 0.00 0.00 83 1021.0
20260901193138 64 60 0.0 0.0 0.00 0.00 0.00 82 1020.9
20260901192131 64 60 0.0 2.0 0.00 0.00 0.00 81 1020.8
20260901191634 65 60 0.0 2.0 0.00 0.00 0.00 81 1020.7
20260901191132 65 60 0.0 0.0 0.00 0.00 0.00 81 1020.7
20260901190634 65 60 0.0 0.0 0.00 0.00 0.00 80 1020.7
20260901190132 66 60 0.0 0.0 0.00 0.00 0.00 80 1020.7
20260901185632 66 60 0.0 0.0 0.00 0.00 0.00 80 1020.7
20260901185134 66 60 0.0 0.0 0.00 0.00 0.00 79 1020.6
20260901184135 67 60 2.0 4.0 0.00 0.00 0.00 78 1020.4
20260901183630 68 60 0.0 4.0 0.00 0.00 0.00 77 1020.2
20260901183131 68 60 0.0 0.0 0.00 0.00 0.00 73 1020.3
20260901182631 68 60 0.0 0.0 0.00 0.00 0.00 72 1020.2
20260901182132 69 60 0.0 0.0 0.00 0.00 0.00 72 1020.3
20260901181633 69 60 0.0 0.0 0.00 0.00 0.00 71 1020.3
20260901181124 69 60 0.0 2.0 0.00 0.00 0.00 71 1020.4
20260901180619 69 60 0.0 2.0 0.00 0.00 0.00 70 1020.4
20260901180117 70 60 0.0 2.0 0.00 0.00 0.00 69 1020.3
20260901175614 70 60 0.0 2.0 0.00 0.00 0.00 69 1020.4
20260901175111 70 60 0.0 2.0 0.00 0.00 0.00 69 1020.4
20260901174606 70 60 0.0 2.0 0.00 0.00 0.00 68 1020.4
20260901173104 71 60 0.0 4.0 0.00 0.00 0.00 67 1020.4
20260901172605 71 60 0.0 4.0 0.00 0.00 0.00 67 1020.4
20260901171606 71 60 0.0 2.0 0.00 0.00 0.00 67 1020.2
20260901170603 72 60 0.0 2.0 0.00 0.00 0.00 66 1020.3
20260901170105 72 60 0.0 2.0 0.00 0.00 0.00 66 1020.2
20260901165544 72 60 0.0 4.0 0.00 0.00 0.00 65 1020.3
20260901164540 73 60 2.0 5.0 0.00 0.00 0.00 65 1020.3
20260901164037 73 60 2.0 5.0 0.00 0.00 0.00 64 1020.2
20260901163538 74 334 2.0 9.0 0.00 0.00 0.00 63 1020.2
20260901163037 74 71 2.0 9.0 0.00 0.00 0.00 62 1020.2
20260901162534 74 261 4.0 12.0 0.00 0.00 0.00 60 1020.2
20260901162035 74 257 4.0 12.0 0.00 0.00 0.00 58 1020.1
20260901161532 74 234 5.0 16.0 0.00 0.00 0.00 59 1020.1
20260901161035 74 228 5.0 16.0 0.00 0.00 0.00 59 1020.2
20260901160535 74 280 4.0 12.0 0.00 0.00 0.00 61 1020.1
20260901160033 74 274 4.0 12.0 0.00 0.00 0.00 61 1020.2
20260901155532 74 262 2.0 12.0 0.00 0.00 0.00 61 1020.1
20260901154536 73 277 2.0 11.0 0.00 0.00 0.00 62 1020.1
20260901154035 73 284 2.0 11.0 0.00 0.00 0.00 61 1020.2
20260901153532 74 269 4.0 9.0 0.00 0.00 0.00 62 1020.2
20260901153030 73 322 4.0 9.0 0.00 0.00 0.00 62 1020.1
20260901152532 73 253 4.0 14.0 0.00 0.00 0.00 62 1020.1
20260901152031 72 216 4.0 14.0 0.00 0.00 0.00 62 1020.3
20260901151533 73 66 5.0 16.0 0.00 0.00 0.00 61 1020.1
20260901150532 75 270 2.0 12.0 0.00 0.00 0.00 61 1020.2
20260901150033 74 275 4.0 16.0 0.00 0.00 0.00 62 1020.2
20260901145533 74 304 2.0 16.0 0.00 0.00 0.00 63 1020.3
20260901145033 73 301 4.0 11.0 0.00 0.00 0.00 65 1020.3
20260901144525 72 270 4.0 18.0 0.00 0.00 0.00 66 1020.3
20260901144024 72 285 4.0 18.0 0.00 0.00 0.00 65 1020.3
20260901143021 73 270 2.0 9.0 0.00 0.00 0.00 64 1020.3
20260901142022 72 70 4.0 14.0 0.00 0.00 0.00 66 1020.2
20260901141518 72 271 4.0 14.0 0.00 0.00 0.00 66 1020.3
20260901141021 72 289 4.0 14.0 0.00 0.01 0.00 65 1020.4
20260901140518 73 332 4.0 14.0 0.00 0.01 0.00 64 1020.3
20260901135520 74 6 2.0 9.0 0.00 0.01 0.00 64 1020.4
20260901135016 72 285 2.0 9.0 0.00 0.01 0.00 65 1020.4
20260901134512 73 85 2.0 7.0 0.00 0.01 0.00 66 1020.4
20260901134009 73 83 4.0 11.0 0.00 0.01 0.00 65 1020.4
20260901133511 73 153 4.0 11.0 0.00 0.01 0.00 65 1020.4
20260901133011 73 200 4.0 18.0 0.00 0.01 0.00 64 1020.4
20260901132504 73 320 5.0 18.0 0.00 0.01 0.00 65 1020.4
20260901132002 72 321 4.0 14.0 0.00 0.01 0.00 66 1020.6
20260901131503 72 244 2.0 12.0 0.00 0.01 0.00 66 1020.6